User: anonymous   Login
Location: Newsoms
(36.6240°N, 77.1250°W)
Time: 05:48:33
(UTC-05:00)
Language:

BREEZE-M DEB (TANK) - Orbit

View from above orbital plane
View from above orbital plane
View from above satellite
View from above satellite

Ground track
Ground track

The orbit data is extracted from the following two-line orbital elements,

1 29649U 06056B   17015.41393751  .00000726  00000-0  17822-3 0  9992
2 29649  49.5042 345.3789 5378213  66.0770 340.2911  4.99145595180145
Epoch (UTC): 15 January 2017 09:56:04
Eccentricity: 0.5378213
inclination: 49.5042°
perigee height: 306 km
apogee height: 15863 km
right ascension of ascending node: 345.3789°
argument of perigee: 66.0770°
revolutions per day: 4.99145595
mean anomaly at epoch: 340.2911°
orbit number at epoch: 18014

The dashed part of the orbit path shows where the satellite is in the earth's shadow,  

DLR